CZ-6A DEB, 54276

Orbit data source: Space-Track

CZ-6A DEB, 54276 is space debris in SSO originally from a launch on Fri, 11 Nov 2022 UTC launched from the Taiyaun Space Center, China (TSC). Debris objects in space refer to the collection of defunct objects orbiting the Earth. Examples of debris include non-operational satellites, rocket bodies, and fragments generated from explosions, collisions, or faulty payload assembly.

Loading next visibility...
Identifier
54276, 2022-151T
Orbit
SSO
Country
Flag of CNCN / PRC
Related business
Manufacturer
SAST
Mission
Spacecraft
Bus & Motor
Unknown
Mass
Unknown
Launch date (UTC)
2022-11-11 (4 years ago)
Launch vehicle
Unknown
Launch site
Taiyaun Space Center, China (TSC)
Object type
Payload
Rocket body
Debris
Shape & HBR
Unknown shape, 0.1 m
Radar Cross Section
Medium (>0.1 m² and <1 m²)

Expand to show TLE details & history
Last TLE update: 8 hours ago

TLE from 8 hours ago
0 CZ-6A DEB
1 54276U 22151T   26221.75314941  .00000376  00000-0  36414-3 0  9999
2 54276  98.8636 144.1574 0205739  31.7812 329.5568 13.76391856187351
Epoch: 2026-08-09T18:04Z
TLE epoch observation values (Epoch: 2026-08-09T18:04:32.109Z)
Latitude
0.00004°
Longitude
-85.22201°
Altitude
849.903 km
Speed
7.493 km/s
True Right ascension
09h 36m 37s
True Declination
0° 00' 00"
Sunlit
Object was in daylight at epoch
Visualization orbit readout
Latitude
Unknown
Longitude
Unknown
Altitude
Unknown
Speed
Unknown
Apparent Right ascension
Unknown
Apparent Declination
Unknown
Sunlit
N/A
Visualization observer readout
Local Sidereal Time
16:40:51
Azimuth
Unknown
Elevation
Unknown
Doppler factor
Unknown
Orbital elements
Apogee altitude
1,125.196 km
Perigee altitude
822.674 km
Semi-major axis
7,352.072 km
Eccentricity
0.02057
Inclination
98.8636°
RAAN
144.1574°
Arg. of periapsis
31.7812°
True anomaly
328.33528°
Mean anomaly
329.5568°
Eccentric anomaly
328.94877°
Mean motion
3.44293 °/min
Orbital period
104.56 mins
BSTAR
0.00036414
Loading maneuver chart data...
Computing Atmospheric mass density...
Loading historical data...
Loading historical data...
Loading historical data...
Loading historical data...
Loading historical data...
Loading historical data...
Loading historical data...

Documentation

Showing up to 5 results
|